Monroe, NC

11:06 AM EST on December 10, 2019 (GMT -0500)
Monroe

Weather History for KEQY - October, 2019

Change the Weather History Date:

Sunday, October 20, 2019

  Actual Average (KCLT) Record (KCLT)
Temperature  
Mean Temperature 64 °F -  
Max Temperature 75 °F 68 °F 86 °F (1926)
Min Temperature 55 °F 46 °F 30 °F (1972)
Degree Days  
Heating Degree Days 1    
Growing Degree Days 14 (Base 50)    
Moisture  
Dew Point 55 °F    
Average Humidity 87    
Maximum Humidity 97    
Minimum Humidity 55    
Precipitation  
Precipitation 0.95 in - - ()
Sea Level Pressure  
Sea Level Pressure 29.79 in    
Wind  
Wind Speed 8 mph ()    
Max Wind Speed 13 mph    
Max Gust Speed 20 mph    
Visibility 5.9 miles    
Events Rain    
Averages and records for this station are not official NWS values.
T = Trace of Precipitation, MM = Missing Value Source: Averaged Metar Reports

Daily Weather History Graph

Daily Weather History Graph

Search for Another Location

Airport or City:

Astronomy

Oct. 20, 2019 Rise Set
Actual Time 7:32 AM EDT 6:41 PM EDT
Civil Twilight 7:06 AM EDT 7:07 PM EDT
Nautical Twilight 6:37 AM EDT 7:36 PM EDT
Astronomical Twilight 6:07 AM EDT 8:06 PM EDT
Moon 11:57 PM EDT (10/20) 1:49 PM EDT (10/20)
Length of Visible Light 12h 00m
Length of Day
11h 09m
Waning Gibbous, 59% of the Moon is Illuminated
Oct 20
Waning Gibbous
Oct 21
Last Quarter
Oct 27
New
Nov 4
First Quarter
Nov 12
Full

Hourly Weather History & Observations

Time (EDT) Temp. Dew Point Humidity Pressure Visibility Wind Dir Wind Speed Gust Speed Precip Events Conditions
12:05 AM 57.0 °F 55.0 °F 93% 29.78 in 2.0 mi NE 10.4 mph - 0.04 in Rain Rain
12:15 AM 57.0 °F 55.0 °F 93% 29.77 in 3.0 mi ENE 8.1 mph 19.6 mph 0.08 in Rain Heavy Rain
12:31 AM 57.0 °F 55.9 °F 96% 29.76 in 2.5 mi NE 9.2 mph - 0.14 in Rain Heavy Rain
12:44 AM 57.9 °F 55.9 °F 93% 29.76 in 4.0 mi ENE 10.4 mph - 0.19 in Rain Light Rain
12:53 AM 57.9 °F 55.9 °F 93% 29.78 in 4.0 mi NE 11.5 mph - 0.21 in Rain Rain
1:38 AM 59.0 °F 57.0 °F 93% 29.74 in 2.0 mi North 8.1 mph - 0.05 in Rain Rain
1:53 AM 59.0 °F 57.0 °F 93% 29.76 in 4.0 mi North 8.1 mph - 0.09 in Rain Light Rain
2:08 AM 57.9 °F 57.0 °F 97% 29.73 in 2.0 mi North 9.2 mph - 0.03 in Rain Heavy Rain
2:19 AM 57.9 °F 55.9 °F 93% 29.72 in 4.0 mi NNE 10.4 mph - 0.06 in Rain Light Rain
2:44 AM 59.0 °F 57.0 °F 93% 29.70 in 2.5 mi NNE 12.7 mph - 0.13 in Rain Heavy Rain
2:53 AM 57.9 °F 57.0 °F 97% 29.72 in 1.8 mi North 11.5 mph - 0.17 in Rain Heavy Rain
3:10 AM 57.9 °F 57.0 °F 97% 29.69 in 1.5 mi North 10.4 mph - 0.09 in Rain Heavy Rain
3:16 AM 57.9 °F 55.9 °F 93% 29.69 in 2.0 mi North 9.2 mph - 0.13 in Rain Heavy Rain
3:27 AM 57.9 °F 55.9 °F 93% 29.68 in 3.0 mi North 8.1 mph - 0.19 in Rain Rain
3:53 AM 57.0 °F 55.0 °F 93% 29.69 in 6.0 mi NNE 12.7 mph - 0.34 in Rain Light Rain
4:53 AM 55.9 °F 54.0 °F 93% 29.69 in 3.0 mi North 11.5 mph 19.6 mph 0.08 in Rain Light Rain
5:29 AM 55.9 °F 53.1 °F 90% 29.67 in 2.5 mi North 12.7 mph - 0.04 in Rain Rain
5:36 AM 55.9 °F 54.0 °F 93% 29.67 in 4.0 mi North 11.5 mph - 0.05 in Rain Light Rain
5:53 AM 55.0 °F 53.1 °F 93% 29.70 in 3.0 mi North 11.5 mph - 0.05 in Rain Light Rain
6:53 AM 55.0 °F 53.1 °F 93% 29.71 in 9.0 mi North 9.2 mph - 0.01 in Rain Light Rain
7:53 AM 55.0 °F 52.0 °F 89% 29.74 in 10.0 mi North 12.7 mph - 0.00 in   Overcast
8:24 AM 55.0 °F 52.0 °F 89% 29.73 in 2.0 mi NNW 9.2 mph 17.3 mph N/A   Overcast
8:31 AM 55.0 °F 53.1 °F 93% 29.73 in 1.5 mi North 10.4 mph - N/A   Overcast
8:53 AM 55.0 °F 53.1 °F 93% 29.77 in 2.5 mi NNW 8.1 mph - N/A   Overcast
9:00 AM 55.0 °F 53.1 °F 93% 29.75 in 3.0 mi NNW 9.2 mph - N/A   Overcast
9:15 AM 55.0 °F 52.0 °F 89% 29.76 in 2.0 mi NNW 8.1 mph - N/A   Overcast
9:27 AM 55.0 °F 53.1 °F 93% 29.77 in 4.0 mi NNW 8.1 mph - N/A   Overcast
9:53 AM 55.0 °F 53.1 °F 93% 29.81 in 10.0 mi NNW 9.2 mph - N/A   Overcast
10:53 AM 57.0 °F 53.1 °F 87% 29.83 in 10.0 mi NNW 6.9 mph - N/A   Overcast
11:38 AM 59.0 °F 53.1 °F 81% 29.82 in 10.0 mi NNW 10.4 mph - N/A   Overcast
11:53 AM 60.1 °F 54.0 °F 80% 29.85 in 10.0 mi North 11.5 mph - N/A   Overcast
12:53 PM 62.1 °F 55.0 °F 78% 29.86 in 10.0 mi North 9.2 mph 18.4 mph N/A   Overcast
1:20 PM 64.0 °F 55.0 °F 73% 29.83 in 10.0 mi NNW 11.5 mph - N/A   Overcast
1:53 PM 64.9 °F 55.0 °F 70% 29.84 in 10.0 mi NNW 10.4 mph - N/A   Overcast
2:53 PM 68.0 °F 55.9 °F 65% 29.85 in 10.0 mi North 8.1 mph - N/A   Overcast
3:27 PM 72.0 °F 57.0 °F 59% 29.83 in 10.0 mi North - - N/A   Scattered Clouds
3:53 PM 73.0 °F 55.9 °F 55% 29.85 in 10.0 mi NNW 8.1 mph - N/A   Partly Cloudy
4:53 PM 73.9 °F 57.0 °F 55% 29.86 in 10.0 mi NW 8.1 mph - N/A   Clear
5:53 PM 73.9 °F 57.0 °F 55% 29.88 in 10.0 mi NW 5.8 mph - N/A   Clear
6:53 PM 66.9 °F 57.9 °F 73% 29.90 in 10.0 mi Calm Calm - N/A   Clear
7:53 PM 62.1 °F 57.9 °F 86% 29.93 in 10.0 mi Calm Calm - N/A   Clear
8:53 PM 61.0 °F 57.9 °F 90% 29.95 in 10.0 mi Calm Calm - N/A   Clear
9:53 PM 59.0 °F 57.0 °F 93% 29.98 in 10.0 mi Calm Calm - N/A   Clear
10:53 PM 59.0 °F 57.0 °F 93% 30.00 in 10.0 mi Calm Calm - N/A   Clear
11:53 PM 57.0 °F 55.9 °F 96% 30.00 in 5.0 mi Calm Calm - N/A   Clear